| time (UTC) | temp F | wind direction | speed MPH | gust MPH | rain 1hr in | rain 24hr in | rain mn in | humidity % | barometer mb |
| 20260503171551 | 71 | 61 | 2.0 | 9.0 | 0.00 | 0.00 | 0.00 | 64 | 1010.8 |
| 20260503110110 | 56 | 39 | 2.0 | 4.0 | 0.00 | 0.00 | 0.00 | 91 | 1011.1 |
| 20260503100106 | 56 | 49 | 0.0 | 3.0 | 0.00 | 0.00 | 0.00 | 91 | 1011.3 |
| 20260503081547 | 57 | 46 | 0.0 | 2.0 | 0.00 | 0.01 | 0.00 | 88 | 1011.7 |
| 20260503071547 | 58 | 360 | 0.0 | 2.0 | 0.00 | 0.01 | 0.00 | 87 | 1011.8 |
| 20260503054540 | 59 | 31 | 0.0 | 2.0 | 0.00 | 0.01 | 0.01 | 84 | 1011.8 |
| 20260503053034 | 60 | 355 | 1.0 | 4.0 | 0.00 | 0.01 | 0.01 | 83 | 1011.7 |
| 20260503051534 | 60 | 52 | 1.0 | 4.0 | 0.00 | 0.01 | 0.01 | 83 | 1011.5 |
| 20260503050034 | 59 | 76 | 2.0 | 5.0 | 0.00 | 0.01 | 0.01 | 83 | 1011.7 |
| 20260503044535 | 60 | 22 | 2.0 | 5.0 | 0.00 | 0.01 | 0.01 | 83 | 1011.7 |
| 20260503043031 | 60 | 112 | 0.0 | 3.0 | 0.00 | 0.01 | 0.01 | 82 | 1011.9 |
| 20260503041531 | 60 | 74 | 0.0 | 2.0 | 0.00 | 0.01 | 0.01 | 82 | 1011.4 |
| 20260503040031 | 61 | 34 | 0.0 | 1.0 | 0.00 | 0.01 | 0.01 | 81 | 1011.4 |
| 20260503034531 | 61 | 34 | 0.0 | 2.0 | 0.00 | 0.01 | 0.01 | 80 | 1011.5 |
| 20260503033041 | 62 | 111 | 1.0 | 3.0 | 0.00 | 0.01 | 0.01 | 80 | 1011.6 |
| 20260503031529 | 62 | 78 | 0.0 | 2.0 | 0.00 | 0.01 | 0.01 | 79 | 1011.3 |
| 20260503030029 | 62 | 347 | 0.0 | 4.0 | 0.00 | 0.01 | 0.01 | 79 | 1011.0 |
| 20260503024528 | 63 | 261 | 0.0 | 4.0 | 0.00 | 0.01 | 0.01 | 77 | 1011.3 |
| 20260503023028 | 63 | 306 | 2.0 | 10.0 | 0.00 | 0.01 | 0.01 | 76 | 1011.4 |
| 20260503021528 | 64 | 273 | 2.0 | 11.0 | 0.00 | 0.01 | 0.01 | 74 | 1011.6 |
| 20260503020026 | 66 | 252 | 6.0 | 15.0 | 0.00 | 0.01 | 0.01 | 72 | 1011.5 |
| 20260503014540 | 67 | 203 | 3.0 | 7.0 | 0.00 | 0.01 | 0.01 | 71 | 1011.0 |
| 20260503013028 | 68 | 225 | 0.0 | 3.0 | 0.00 | 0.01 | 0.01 | 70 | 1010.8 |
| 20260503011523 | 68 | 286 | 0.0 | 4.0 | 0.00 | 0.01 | 0.01 | 69 | 1010.8 |
| 20260503010023 | 69 | 314 | 0.0 | 4.0 | 0.00 | 0.01 | 0.01 | 67 | 1010.7 |
| 20260503004527 | 70 | 285 | 1.0 | 3.0 | 0.00 | 0.01 | 0.01 | 66 | 1010.6 |
| 20260503003021 | 70 | 43 | 0.0 | 2.0 | 0.00 | 0.01 | 0.01 | 63 | 1010.5 |
| 20260503001524 | 70 | 216 | 0.0 | 2.0 | 0.00 | 0.01 | 0.01 | 65 | 1010.5 |
| 20260503000019 | 70 | 223 | 0.0 | 3.0 | 0.00 | 0.01 | 0.01 | 65 | 1010.6 |
| 20260502234518 | 70 | 148 | 1.0 | 4.0 | 0.00 | 0.01 | 0.01 | 62 | 1010.8 |
| 20260502233015 | 70 | 40 | 1.0 | 4.0 | 0.00 | 0.01 | 0.01 | 61 | 1011.0 |
| 20260502231516 | 70 | 76 | 3.0 | 8.0 | 0.00 | 0.01 | 0.01 | 62 | 1011.2 |
| 20260502230015 | 68 | 86 | 2.0 | 4.0 | 0.00 | 0.01 | 0.01 | 65 | 1011.4 |
| 20260502224508 | 67 | 27 | 1.0 | 6.0 | 0.00 | 0.01 | 0.01 | 65 | 1011.6 |
| 20260502223006 | 67 | 5 | 1.0 | 4.0 | 0.00 | 0.01 | 0.01 | 65 | 1011.8 |
| 20260502221503 | 67 | 255 | 1.0 | 4.0 | 0.00 | 0.01 | 0.01 | 66 | 1012.0 |
| 20260502220002 | 68 | 94 | 2.0 | 7.0 | 0.00 | 0.01 | 0.01 | 62 | 1012.2 |
| 20260502214558 | 67 | 9 | 1.0 | 6.0 | 0.00 | 0.01 | 0.01 | 66 | 1012.5 |
| 20260502213109 | 66 | 145 | 1.0 | 5.0 | 0.00 | 0.01 | 0.01 | 68 | 1012.6 |
| 20260502211615 | 66 | 85 | 2.0 | 5.0 | 0.00 | 0.01 | 0.01 | 66 | 1012.9 |
| 20260502210048 | 65 | 96 | 2.0 | 7.0 | 0.00 | 0.01 | 0.01 | 68 | 1012.9 |
| 20260502204546 | 65 | 338 | 3.0 | 8.0 | 0.00 | 0.01 | 0.01 | 71 | 1013.2 |
| 20260502203041 | 63 | 139 | 1.0 | 5.0 | 0.00 | 0.01 | 0.01 | 72 | 1013.6 |
| 20260502201537 | 61 | 273 | 2.0 | 5.0 | 0.00 | 0.01 | 0.01 | 74 | 1013.6 |
| 20260502200034 | 60 | 109 | 1.0 | 4.0 | 0.00 | 0.01 | 0.01 | 76 | 1013.8 |
| 20260502194529 | 59 | 263 | 1.0 | 10.0 | 0.00 | 0.01 | 0.01 | 78 | 1014.0 |
| 20260502193026 | 58 | 65 | 2.0 | 10.0 | 0.00 | 0.01 | 0.01 | 78 | 1014.0 |
| 20260502191521 | 57 | 98 | 2.0 | 8.0 | 0.00 | 0.01 | 0.01 | 82 | 1014.2 |
| 20260502190021 | 56 | 301 | 2.0 | 5.0 | 0.00 | 0.01 | 0.01 | 82 | 1014.7 |
| 20260502184526 | 55 | 114 | 1.0 | 6.0 | 0.00 | 0.01 | 0.01 | 82 | 1014.7 |
| 20260502183033 | 55 | 71 | 2.0 | 10.0 | 0.00 | 0.01 | 0.01 | 84 | 1014.4 |
| 20260502181517 | 54 | 67 | 3.0 | 12.0 | 0.00 | 0.01 | 0.01 | 84 | 1014.6 |